Snowfall_Accumulation
0.0 0.0 0.0 0.0 0.0 0.0 0.0 0.0 0.0 0.0 0.0 0.0 0.0 0.0 0.0 0.0 0.0 0.0 0.0 0.0 0.0 0.0 0.0 0.0 0.0 0.0 0.0
0.0 0.3 0.4 0.1 0.2 0.0 0.0 0.0 0.0 0.0 0.0 0.0 0.0 0.0 0.0 0.0 0.0 0.0 0.0 0.0 0.0 0.0 0.0 0.0 0.0 0.0 0.0
0.3 0.8 1.3 0.9 2.0 1.6 1.1 0.0 0.0 0.0 0.0 0.0 0.0 0.0 0.0 0.0 0.0 0.0 0.0 0.0 0.0 0.0 0.0 0.0 0.0 0.0 0.0
0.3 1.0 0.8 0.5 0.3 0.4 0.4 0.2 0.0 0.0 0.0 0.0 0.0 0.0 0.0 0.0 0.0 0.0 0.0 0.0 0.0 0.0 0.0 0.0 0.0 0.0 0.0
0.9 0.3 0.3 0.3 0.3 0.2 0.1 0.0 0.0 0.0 0.0 0.0 0.0 0.0 0.0 0.0 0.0 0.0 0.0 0.0 0.0 0.0 0.0 0.0 0.0 0.0 0.0
0.4 0.0 0.0 0.0 0.0 0.0 0.2 0.6 1.2 0.2 0.3 0.1 0.0 0.1 0.0 0.0 0.0 0.0 0.0 0.0 0.0 0.0 0.0 0.0 0.0 0.0 0.0
0.0 0.0 0.0 0.0 0.4 0.5 1.3 2.0 0.8 1.4 0.5 1.0 0.2 0.0 0.0 0.0 0.0 0.0 0.0 0.0 0.0 0.0 0.0 0.0 0.0 0.0 0.0
0.0 0.0 0.1 0.1 0.3 0.5 1.0 2.8 1.6 0.7 0.1 0.6 0.0 0.0 0.0 0.0 0.0 0.0 0.0 0.0 0.0 0.0 0.0 0.0 0.0 0.0 0.0
0.0 0.0 0.0 0.0 0.0 0.2 1.3 1.7 1.3 0.0 0.0 0.2 0.0 0.0 0.0 0.0 0.0 0.0 0.0 0.0 0.0 0.0 0.0 0.0 0.0 0.0 0.0
0.0 0.0 0.0 0.0 0.0 0.0 0.2 3.5 2.4 2.1 0.0 2.1 0.2 0.7 3.8 0.0 0.0 0.0 0.0 0.0 0.0 0.0 0.0 0.0 0.0 0.0 0.1
0.0 0.0 0.0 0.0 0.0 0.0 0.0 1.7 6.5 5.2 0.0 5.0 7.9 1.3 6.9 1.9 0.0 0.0 0.0 0.0 0.0 0.0 0.0 0.0 0.1 0.1 0.8
0.1 0.0 0.0 0.0 0.0 0.1 0.1 0.1 0.2 2.0 0.3 0.6 14.9 5.4 10.8 8.6 1.3 0.0 0.3 0.3 0.5 0.8 0.6 0.0 0.0 0.0 0.1
0.3 0.1 0.0 0.0 0.0 0.2 0.1 0.7 0.6 0.0 0.0 0.1 3.3 4.7 10.0 13.0 6.4 1.2 1.0 0.3 0.8 0.9 1.1 1.6 1.5 0.4 0.9
0.7 0.1 0.1 0.5 1.3 1.2 2.0 1.5 3.4 1.7 1.2 2.0 2.3 4.4 11.1 4.9 6.0 4.7 0.8 2.8 0.9 1.2 1.9 1.3 1.2 1.4 2.0
1.2 1.6 1.3 1.4 1.5 1.2 2.5 3.3 7.1 3.8 4.3 2.6 2.3 2.8 2.8 4.5 9.3 1.6 1.6 1.7 1.1 2.2 2.6 2.1 1.0 1.9 2.5
2.9 2.7 4.0 3.9 3.4 4.5 4.5 5.9 7.2 3.2 5.2 5.4 6.2 9.4 8.2 6.4 1.2 5.0 4.0 1.9 2.0 1.5 2.1 5.8 3.0 0.8 0.5
5.2 5.4 6.8 6.1 6.3 6.2 4.3 5.2 5.8 3.6 4.9 6.2 9.3 15.7 22.4 9.2 2.8 1.4 7.0 5.9 3.6 3.6 2.7 3.7 4.6 1.9 1.0